Satellite: ORSTED
Catalog number: 25635
Epoch time:      103031.52221781
Element set:     820 
Inclination:       96.4482 deg
RA of node:        22.0760 deg
Eccentricity:    0.0146443
Arg of perigee:    26.8306 deg
Mean anomaly:     334.0365 deg
Mean motion:   14.44799995 rev/day
Decay rate:    7.7699E-006 rev/day^2
Epoch rev:           20733
Checksum:              314

Satellite: SUNSAT
Catalog number: 25636
Epoch time:      103030.23161074
Element set:     660 
Inclination:       96.4516 deg
RA of node:        19.7926 deg
Eccentricity:    0.0150414
Arg of perigee:    37.0876 deg
Mean anomaly:     324.0600 deg
Mean motion:   14.42932458 rev/day
Decay rate:    3.6300E-006 rev/day^2
Epoch rev:           20702
Checksum:              268

Satellite: UOSAT 12
Catalog number: 25693
Epoch time:      103031.46437944
Element set:     663 
Inclination:       64.5598 deg
RA of node:        66.1990 deg
Eccentricity:    0.0018863
Arg of perigee:   316.6941 deg
Mean anomaly:      43.2681 deg
Mean motion:   14.76365877 rev/day
Decay rate:    4.7799E-006 rev/day^2
Epoch rev:           20358
Checksum:              361

Satellite: FENGYUN 1C
Catalog number: 25730
Epoch time:      103030.87134926
Element set:     755 
Inclination:       98.6357 deg
RA of node:        55.9742 deg
Eccentricity:    0.0015245
Arg of perigee:    57.9134 deg
Mean anomaly:     302.3515 deg
Mean motion:   14.11731798 rev/day
Decay rate:    9.0000E-008 rev/day^2
Epoch rev:           19199
Checksum:              312

Satellite: ASTRA 1H
Catalog number: 25785
Epoch time:      103023.00000000
Element set:     369 
Inclination:        0.0122 deg
RA of node:       319.8851 deg
Eccentricity:    0.0002995
Arg of perigee:    65.1991 deg
Mean anomaly:     116.0174 deg
Mean motion:    1.00273184 rev/day
Decay rate:    1.2299E-006 rev/day^2
Epoch rev:            1323
Checksum:              243

Satellite: TERRA
Catalog number: 25994
Epoch time:      103031.25277972
Element set:     653 
Inclination:       98.2009 deg
RA of node:       107.7558 deg
Eccentricity:    0.0001055
Arg of perigee:    82.7276 deg
Mean anomaly:     277.4070 deg
Mean motion:   14.57109127 rev/day
Decay rate:    4.9199E-006 rev/day^2
Epoch rev:           16600
Checksum:              319

Satellite: JAWSAT
Catalog number: 26061
Epoch time:      103030.85995129
Element set:     753 
Inclination:      100.2106 deg
RA of node:        84.4545 deg
Eccentricity:    0.0034725
Arg of perigee:   333.0484 deg
Mean anomaly:      26.8892 deg
Mean motion:   14.37801658 rev/day
Decay rate:    4.3199E-006 rev/day^2
Epoch rev:           15784
Checksum:              313

Satellite: OPAL
Catalog number: 26063
Epoch time:      103030.66627978
Element set:     710 
Inclination:      100.2157 deg
RA of node:        81.8149 deg
Eccentricity:    0.0037230
Arg of perigee:   340.5228 deg
Mean anomaly:      19.4519 deg
Mean motion:   14.35472807 rev/day
Decay rate:    1.0799E-006 rev/day^2
Epoch rev:           15767
Checksum:              304

Satellite: ASUSAT
Catalog number: 26065
Epoch time:      103030.55381284
Element set:     721 
Inclination:      100.2156 deg
RA of node:        81.8273 deg
Eccentricity:    0.0037154
Arg of perigee:   342.1314 deg
Mean anomaly:      17.8558 deg
Mean motion:   14.35499627 rev/day
Decay rate:    1.2799E-006 rev/day^2
Epoch rev:           15765
Checksum:              304

Satellite: GOES 11
Catalog number: 26352
Epoch time:      103030.43020083
Element set:     998 
Inclination:        0.0946 deg
RA of node:       105.6366 deg
Eccentricity:    0.0004374
Arg of perigee:   178.7334 deg
Mean anomaly:     246.8541 deg
Mean motion:    1.00263071 rev/day
Decay rate:   -4.5999E-007 rev/day^2
Epoch rev:            1004
Checksum:              277

Satellite: EUTELSAT W4
Catalog number: 26369
Epoch time:      103027.82381367
Element set:     347 
Inclination:        0.0483 deg
RA of node:        43.9257 deg
Eccentricity:    0.0006599
Arg of perigee:   239.5452 deg
Mean anomaly:     175.8942 deg
Mean motion:    1.00275910 rev/day
Decay rate:    1.5299E-006 rev/day^2
Epoch rev:             983
Checksum:              427

Satellite: FENGYUN 2B
Catalog number: 26382
Epoch time:      103030.27861109
Element set:     778 
Inclination:        0.6140 deg
RA of node:       287.1198 deg
Eccentricity:    0.0000385
Arg of perigee:   155.6588 deg
Mean anomaly:     250.4963 deg
Mean motion:    1.00257961 rev/day
Decay rate:   -3.3300E-006 rev/day^2
Epoch rev:             951
Checksum:              287

Satellite: EUTELSAT W1
Catalog number: 26487
Epoch time:      103028.81965858
Element set:     349 
Inclination:        0.0101 deg
RA of node:       302.0094 deg
Eccentricity:    0.0003628
Arg of perigee:   296.2496 deg
Mean anomaly:     194.4288 deg
Mean motion:    1.00271090 rev/day
Decay rate:    6.2999E-007 rev/day^2
Epoch rev:             881
Checksum:              308

Satellite: ASTRA 2B
Catalog number: 26494
Epoch time:      103023.00000000
Element set:     252 
Inclination:        0.0178 deg
RA of node:       354.5658 deg
Eccentricity:    0.0005000
Arg of perigee:   302.8402 deg
Mean anomaly:     212.7100 deg
Mean motion:    1.00276704 rev/day
Decay rate:    1.5399E-006 rev/day^2
Epoch rev:             865
Checksum:              221

Satellite: NOAA 16
Catalog number: 26536
Epoch time:      103030.80241149
Element set:     188 
Inclination:       98.8994 deg
RA of node:       339.2277 deg
Eccentricity:    0.0010658
Arg of perigee:     3.7132 deg
Mean anomaly:     356.4103 deg
Mean motion:   14.11892375 rev/day
Decay rate:   -1.7000E-007 rev/day^2
Epoch rev:           12150
Checksum:              293

Satellite: SAUDISAT 1A
Catalog number: 26545
Epoch time:      103030.74773658
Element set:     405 
Inclination:       64.5592 deg
RA of node:        89.7685 deg
Eccentricity:    0.0053341
Arg of perigee:   241.7734 deg
Mean anomaly:     117.8021 deg
Mean motion:   14.78927899 rev/day
Decay rate:    9.3700E-006 rev/day^2
Epoch rev:           12643
Checksum:              337

Satellite: UNISAT
Catalog number: 26547
Epoch time:      103030.74367382
Element set:     424 
Inclination:       64.5571 deg
RA of node:        92.0868 deg
Eccentricity:    0.0060528
Arg of perigee:   244.1868 deg
Mean anomaly:     115.3005 deg
Mean motion:   14.79660001 rev/day
Decay rate:    1.8040E-005 rev/day^2
Epoch rev:           12640
Checksum:              381

Satellite: TIUNGSAT 1
Catalog number: 26548
Epoch time:      103029.65147668
Element set:     408 
Inclination:       64.5579 deg
RA of node:        86.2475 deg
Eccentricity:    0.0046644
Arg of perigee:   241.0722 deg
Mean anomaly:     118.5705 deg
Mean motion:   14.81198315 rev/day
Decay rate:    1.2649E-005 rev/day^2
Epoch rev:           12641
Checksum:              419

Satellite: SAUDISAT 1B
Catalog number: 26549
Epoch time:      103031.17631208
Element set:     679 
Inclination:       64.5559 deg
RA of node:        92.4710 deg
Eccentricity:    0.0057680
Arg of perigee:   242.0595 deg
Mean anomaly:     117.4641 deg
Mean motion:   14.77870241 rev/day
Decay rate:    1.1310E-005 rev/day^2
Epoch rev:           12642
Checksum:              400

Satellite: AMSAT OSCAR 40
Catalog number: 26609
Epoch time:      103028.74268608
Element set:     306 
Inclination:        8.0219 deg
RA of node:        68.0001 deg
Eccentricity:    0.7938228
Arg of perigee:   137.9377 deg
Mean anomaly:     321.5232 deg
Mean motion:    1.25596898 rev/day
Decay rate:   -7.4000E-007 rev/day^2
Epoch rev:            1032
Checksum:              302

Satellite: GOES 12
Catalog number: 26871
Epoch time:      103030.44793568
Element set:     798 
Inclination:        0.3742 deg
RA of node:       276.8869 deg
Eccentricity:    0.0003283
Arg of perigee:   355.1578 deg
Mean anomaly:     277.7020 deg
Mean motion:    1.00363359 rev/day
Decay rate:   -1.3799E-006 rev/day^2
Epoch rev:             564
Checksum:              330

Satellite: PCSAT
Catalog number: 26931
Epoch time:      103031.46922056
Element set:     390 
Inclination:       67.0485 deg
RA of node:       302.2103 deg
Eccentricity:    0.0005164
Arg of perigee:   263.2068 deg
Mean anomaly:      96.8445 deg
Mean motion:   14.29105091 rev/day
Decay rate:    1.4400E-006 rev/day^2
Epoch rev:            6976
Checksum:              278

Satellite: SAPPHIRE
Catalog number: 26932
Epoch time:      103030.88973643
Element set:     384 
Inclination:       67.0569 deg
RA of node:       303.4111 deg
Eccentricity:    0.0005648
Arg of perigee:   240.0637 deg
Mean anomaly:     119.9902 deg
Mean motion:   14.29287191 rev/day
Decay rate:    1.1299E-006 rev/day^2
Epoch rev:            6970
Checksum:              316

Satellite: ENVISAT
Catalog number: 27386
Epoch time:      103031.45127488
Element set:     896 
Inclination:       98.5465 deg
RA of node:       100.2627 deg
Eccentricity:    0.0000891
Arg of perigee:    91.0326 deg
Mean anomaly:     269.0961 deg
Mean motion:   14.32249994 rev/day
Decay rate:    1.3500E-006 rev/day^2
Epoch rev:            4815
Checksum:              312

Satellite: IDEFIX/ARIANE 
Catalog number: 27422
Epoch time:      103030.89383194
Element set:     221 
Inclination:       98.6986 deg
RA of node:       110.1799 deg
Eccentricity:    0.0012241
Arg of perigee:   201.0901 deg
Mean anomaly:     158.9775 deg
Mean motion:   14.27958957 rev/day
Decay rate:    1.8299E-006 rev/day^2
Epoch rev:            3879
Checksum:              345

